Location: São Paulo
(23.5507°S, 46.6334°W)
Time: 13:14:22
(UTC-03:00)

Tiros 1 - Pass Details

Date: 19 February 2026
Orbit: 618 x 649 km, 48.4° (Epoch: 11 March)

Event Time Altitude Azimuth Distance (km) Brightness Sun altitude
Rises 03:37:01 0° 226° (SW) 2,979 - -30.7°
Reaches altitude 10° 03:39:22 10° 227° (SW) 2,063 - -30.2°
Maximum altitude 03:44:08 81° 312° (NW) 661 - -29.2°
Exits shadow 03:48:15 14° 40° (NE) 1,808 9.5 -28.4°
Drops below altitude 10° 03:48:50 10° 40° (NE) 2,034 9.8 -28.3°
Sets 03:51:09 0° 41° (NE) 2,934 10.7 -27.8°
